sat.trackr.live / text

‹ back to catalog

ONEWEB-0138

NORAD 47284 · 2020-100AC

PAYLOAD ACTIVE UNKNOWN

§ Identity

Operator
Country
UK
Launch date
2020-12-18
Launch site
VOSTO
Launch vehicle
Mass (kg)
RCS (m²)

Purposes: comms

External: N2YO · Heavens-Above · Gunter

§ Orbital elements

Epoch: 2026-05-25T00:39:21.235104Z

Period
109.72 min
Inclination
87.8961°
Eccentricity
0.0001544
Mean motion
13.12442381 rev/d
Perigee alt
1,212.6 km
Apogee alt
1,214.9 km
Semi-major
7,591.9 km
B*
1.1040e-3
RAAN
355.2707°
Arg perigee
86.2770°
Mean anomaly
273.8535°
Rev number
26,161

§ Raw data

ONEWEB-01381 47284U 20100AC  26145.02732911  .00000410  00000+0  11040-2 0  99932 47284  87.8961 355.2707 0001544  86.2770 273.8535 13.12442381261617

JSON: /api/v1/satellites/47284 · /tle

For live sub-satellite position, see the globe view (requires WebGL).

§ Visibility from observer

Set your observer location to see the next 7 days of passes ≥ 10°. The values pass through the URL so the page stays shareable.

No JS? Fill the form by hand. The geolocation button needs JavaScript.